• In Deutschland
  • Länderverzeichnis
  • Für 7 Tage
  • Wassertemperatur
  • Satellitenkarten
  • Wetterkarte
  • Widgets
  • user-avatar
    Anmelden

    Stündliche Wetter Mbandaka

    Heute, 16 November, Freitag

    Zeit Temperatur Niederschläge Wind Luftdruck Luftfeuchtigkeit
    00:00 +23°C° 0 mm 0 m/S 731 mmHg 88%
    01:00 +23°C° 0 mm 0 m/S 731 mmHg 87%
    02:00 +23°C° 0 mm 0 m/S 730 mmHg 87%
    03:00 +22°C° 0 mm 0 m/S 730 mmHg 88%
    04:00 +22°C° 0 mm 0 m/S 730 mmHg 88%
    05:00 +25°C° 0 mm 1 m/S 731 mmHg 87%
    06:00 +25°C° 0 mm 1 m/S 731 mmHg 86%
    07:00 +25°C° 0 mm 1 m/S 732 mmHg 85%
    08:00 +27°C° 0 mm 1 m/S 732 mmHg 77%
    09:00 +29°C° 0 mm 1 m/S 732 mmHg 70%
    10:00 +30°C° 0 mm 1 m/S 732 mmHg 63%
    11:00 +31°C° 0.4 mm 2 m/S 732 mmHg 60%
    12:00 +32°C° 0.4 mm 2 m/S 731 mmHg 58%
    13:00 +35°C° 0.4 mm 2 m/S 731 mmHg 55%
    14:00 +32°C° 1.2 mm 1 m/S 730 mmHg 66%
    15:00 +30°C° 1.2 mm 1 m/S 730 mmHg 77%
    16:00 +29°C° 1.2 mm 1 m/S 729 mmHg 88%
    17:00 +25°C° 0.7 mm 0 m/S 730 mmHg 90%
    18:00 +24°C° 0.7 mm 0 m/S 730 mmHg 93%
    19:00 +23°C° 0.7 mm 0 m/S 731 mmHg 95%
    20:00 +23°C° 0.3 mm 0 m/S 732 mmHg 95%
    21:00 +23°C° 0.3 mm 0 m/S 732 mmHg 95%
    22:00 +22°C° 0.3 mm 0 m/S 733 mmHg 95%
    23:00 +22°C° 0 mm 0 m/S 732 mmHg 95%

    Morgen, 17 November, Samstag

    Zeit Temperatur Niederschläge Wind Luftdruck Luftfeuchtigkeit
    00:00 +22°C° 0 mm 0 m/S 732 mmHg 95%
    01:00 +22°C° 0 mm 0 m/S 732 mmHg 95%
    02:00 +22°C° 0 mm 0 m/S 732 mmHg 96%
    03:00 +22°C° 0 mm 0 m/S 731 mmHg 96%
    04:00 +22°C° 0 mm 0 m/S 731 mmHg 96%
    05:00 +22°C° 0.1 mm 0 m/S 732 mmHg 95%
    06:00 +23°C° 0.1 mm 0 m/S 732 mmHg 93%
    07:00 +23°C° 0.1 mm 0 m/S 732 mmHg 92%
    08:00 +28°C° 0.2 mm 1 m/S 732 mmHg 80%
    09:00 +31°C° 0.2 mm 1 m/S 732 mmHg 68%
    10:00 +34°C° 0.2 mm 1 m/S 733 mmHg 56%
    11:00 +34°C° 0.4 mm 1 m/S 732 mmHg 52%
    12:00 +35°C° 0.4 mm 1 m/S 731 mmHg 49%
    13:00 +35°C° 0.4 mm 1 m/S 730 mmHg 45%
    14:00 +34°C° 0.1 mm 1 m/S 730 mmHg 50%
    15:00 +33°C° 0.1 mm 1 m/S 729 mmHg 55%
    16:00 +32°C° 0.1 mm 1 m/S 729 mmHg 60%
    17:00 +30°C° 1 mm 1 m/S 730 mmHg 69%
    18:00 +28°C° 1 mm 1 m/S 730 mmHg 77%
    19:00 +27°C° 1 mm 1 m/S 731 mmHg 86%
    20:00 +26°C° 0.8 mm 1 m/S 731 mmHg 88%
    21:00 +26°C° 0.8 mm 1 m/S 731 mmHg 91%
    22:00 +25°C° 0.8 mm 1 m/S 732 mmHg 93%
    23:00 +25°C° 0.2 mm 1 m/S 731 mmHg 94%

    übermorgen, 18 November, Sonntag

    Zeit Temperatur Niederschläge Wind Luftdruck Luftfeuchtigkeit
    00:00 +22°C° 0.2 mm 0 m/S 731 mmHg 95%
    01:00 +22°C° 0.2 mm 0 m/S 731 mmHg 96%
    02:00 +22°C° 0.2 mm 0 m/S 731 mmHg 97%
    03:00 +22°C° 0.2 mm 0 m/S 730 mmHg 97%
    04:00 +22°C° 0.2 mm 0 m/S 730 mmHg 97%
    05:00 +22°C° 0.1 mm 0 m/S 731 mmHg 96%
    06:00 +23°C° 0.1 mm 0 m/S 731 mmHg 94%
    07:00 +23°C° 0.1 mm 0 m/S 732 mmHg 93%
    08:00 +24°C° 0.2 mm 0 m/S 732 mmHg 88%
    09:00 +25°C° 0.2 mm 0 m/S 732 mmHg 84%
    10:00 +26°C° 0.2 mm 0 m/S 733 mmHg 79%
    11:00 +30°C° 0.4 mm 0 m/S 732 mmHg 67%
    12:00 +33°C° 0.4 mm 0 m/S 731 mmHg 54%
    13:00 +36°C° 0.4 mm 0 m/S 730 mmHg 41%
    14:00 +34°C° 0 mm 0 m/S 729 mmHg 45%
    15:00 +33°C° 0 mm 0 m/S 729 mmHg 48%
    16:00 +32°C° 0 mm 0 m/S 728 mmHg 51%
    17:00 +30°C° 0 mm 0 m/S 729 mmHg 57%
    18:00 +28°C° 0 mm 0 m/S 729 mmHg 62%
    19:00 +27°C° 0 mm 0 m/S 730 mmHg 68%
    20:00 +26°C° 0 mm 0 m/S 730 mmHg 71%
    21:00 +26°C° 0 mm 0 m/S 730 mmHg 74%
    22:00 +25°C° 0 mm 0 m/S 731 mmHg 77%
    23:00 +24°C° 0 mm 0 m/S 730 mmHg 80%

    19 November, Montag

    Zeit Temperatur Niederschläge Wind Luftdruck Luftfeuchtigkeit
    00:00 +24°C° 0 mm 0 m/S 730 mmHg 83%
    01:00 +23°C° 0 mm 0 m/S 730 mmHg 86%
    02:00 +23°C° 0.2 mm 0 m/S 730 mmHg 88%
    03:00 +23°C° 0.2 mm 0 m/S 729 mmHg 90%
    04:00 +22°C° 0.2 mm 0 m/S 729 mmHg 91%
    05:00 +23°C° 0.1 mm 0 m/S 730 mmHg 89%
    06:00 +24°C° 0.1 mm 0 m/S 731 mmHg 86%
    07:00 +25°C° 0.1 mm 0 m/S 731 mmHg 83%
    08:00 +29°C° 0 mm 1 m/S 731 mmHg 74%
    09:00 +31°C° 0 mm 1 m/S 732 mmHg 65%
    10:00 +33°C° 0 mm 1 m/S 732 mmHg 56%
    11:00 +34°C° 0 mm 1 m/S 731 mmHg 52%
    12:00 +35°C° 0 mm 1 m/S 729 mmHg 48%
    13:00 +36°C° 0 mm 1 m/S 728 mmHg 43%
    14:00 +36°C° 0 mm 1 m/S 728 mmHg 45%
    15:00 +35°C° 0 mm 1 m/S 727 mmHg 47%
    16:00 +33°C° 0 mm 0 m/S 727 mmHg 48%
    17:00 +31°C° 0.2 mm 0 m/S 728 mmHg 57%
    18:00 +29°C° 0.2 mm 0 m/S 728 mmHg 65%
    19:00 +27°C° 0.2 mm 0 m/S 729 mmHg 73%
    20:00 +26°C° 0.5 mm 0 m/S 729 mmHg 78%
    21:00 +25°C° 0.5 mm 0 m/S 729 mmHg 82%
    22:00 +24°C° 0.5 mm 0 m/S 730 mmHg 87%
    23:00 +26°C° 0.1 mm 1 m/S 729 mmHg 87%

    20 November, Dienstag

    Zeit Temperatur Niederschläge Wind Luftdruck Luftfeuchtigkeit
    00:00 +26°C° 0.1 mm 1 m/S 729 mmHg 88%
    01:00 +26°C° 0.1 mm 1 m/S 729 mmHg 88%
    02:00 +26°C° 0.2 mm 1 m/S 729 mmHg 89%
    03:00 +25°C° 0.2 mm 1 m/S 729 mmHg 90%
    04:00 +25°C° 0.2 mm 1 m/S 729 mmHg 91%
    05:00 +25°C° 1.2 mm 1 m/S 730 mmHg 93%
    06:00 +25°C° 1.2 mm 1 m/S 731 mmHg 94%
    07:00 +25°C° 1.2 mm 1 m/S 731 mmHg 96%
    08:00 +28°C° 0.3 mm 1 m/S 732 mmHg 85%
    09:00 +30°C° 0.3 mm 1 m/S 732 mmHg 74%
    10:00 +32°C° 0.3 mm 1 m/S 732 mmHg 64%
    11:00 +33°C° 0.4 mm 1 m/S 731 mmHg 60%
    12:00 +34°C° 0.4 mm 1 m/S 730 mmHg 56%
    13:00 +35°C° 0.4 mm 1 m/S 729 mmHg 52%
    14:00 +35°C° 0.1 mm 1 m/S 729 mmHg 51%
    15:00 +35°C° 0.1 mm 1 m/S 728 mmHg 50%
    16:00 +33°C° 0.1 mm 0 m/S 728 mmHg 49%
    17:00 +31°C° 0 mm 0 m/S 728 mmHg 56%
    18:00 +29°C° 0 mm 0 m/S 729 mmHg 62%
    19:00 +27°C° 0 mm 0 m/S 730 mmHg 69%
    20:00 +28°C° 0.6 mm 1 m/S 730 mmHg 75%
    21:00 +27°C° 0.6 mm 1 m/S 730 mmHg 81%
    22:00 +26°C° 0.6 mm 1 m/S 730 mmHg 87%
    23:00 +26°C° 2.6 mm 1 m/S 730 mmHg 90%

    21 November, Mittwoch

    Zeit Temperatur Niederschläge Wind Luftdruck Luftfeuchtigkeit
    00:00 +25°C° 2.6 mm 1 m/S 730 mmHg 94%
    01:00 +25°C° 2.6 mm 1 m/S 729 mmHg 97%
    02:00 +25°C° 0.4 mm 1 m/S 730 mmHg 97%
    03:00 +25°C° 0.4 mm 1 m/S 730 mmHg 97%
    04:00 +25°C° 0.4 mm 1 m/S 730 mmHg 97%
    05:00 +25°C° 0.4 mm 1 m/S 730 mmHg 97%
    06:00 +25°C° 0.4 mm 1 m/S 731 mmHg 97%
    07:00 +25°C° 0.4 mm 1 m/S 731 mmHg 96%
    08:00 +27°C° 0 mm 1 m/S 731 mmHg 86%
    09:00 +29°C° 0 mm 2 m/S 731 mmHg 76%
    10:00 +31°C° 0 mm 2 m/S 731 mmHg 66%
    11:00 +34°C° 0 mm 2 m/S 730 mmHg 59%
    12:00 +35°C° 0 mm 1 m/S 729 mmHg 51%
    13:00 +37°C° 0 mm 1 m/S 729 mmHg 44%
    14:00 +35°C° 0.5 mm 1 m/S 728 mmHg 54%
    15:00 +33°C° 0.5 mm 1 m/S 728 mmHg 64%
    16:00 +31°C° 0.5 mm 1 m/S 728 mmHg 74%
    17:00 +29°C° 0.3 mm 1 m/S 728 mmHg 79%
    18:00 +28°C° 0.3 mm 1 m/S 729 mmHg 85%
    19:00 +26°C° 0.3 mm 1 m/S 730 mmHg 90%
    20:00 +24°C° 0.1 mm 0 m/S 730 mmHg 90%
    21:00 +24°C° 0.1 mm 0 m/S 730 mmHg 91%
    22:00 +24°C° 0.1 mm 0 m/S 730 mmHg 91%
    23:00 +23°C° 0.3 mm 0 m/S 730 mmHg 93%
    Mehr zeigen